Weather History for Kahului, HI

Change the Weather History Date:

Saturday, November 17, 2012

  Actual Average Record
Temperature  
Mean Temperature 76 °F 76 °F  
Max Temperature 80 °F 84 °F 90 °F (1952)
Min Temperature 71 °F 68 °F 57 °F (1952)
Degree Days  
Heating Degree Days 0 0  
Month to date heating degree days 0 0  
Since 1 July heating degree days 0 0  
Cooling Degree Days 11 11  
Month to date cooling degree days 186 197  
Year to date cooling degree days 3528 3573  
Growing Degree Days 25 (Base 50)    
Moisture  
Dew Point 63 °F    
Average Humidity 69    
Maximum Humidity 79    
Minimum Humidity 58    
Precipitation  
Precipitation T in 0.07 in 2.91 in (1950)
Month to date precipitation 0.17 1.08  
Year to date precipitation 4.88 13.36  
Snow  
Snow 0.00 in - - ()
Month to date snowfall 0.0  
Since 1 July snowfall 0.0  
Since 1 September snowfall 0.0  
Snow Depth 0.00 in    
Sea Level Pressure  
Sea Level Pressure 30.07 in    
Wind  
Wind Speed 16 mph (NE)    
Max Wind Speed 26 mph    
Max Gust Speed 36 mph    
Visibility 10 miles    
Events Rain    
T = Trace of Precipitation, MM = Missing Value Source: NWS Daily Summary

Daily Weather History Graph

Daily Weather History Graph

Search for Another Location

Airport:

Trip Planner

Search our weather history database for the weather conditions in past years. The results will help you decide how hot, cold, wet, or windy it might be!

Date:

Astronomy

Nov. 17, 2012 Rise Set
Actual Time 6:37 AM HST 5:43 PM HST
Civil Twilight 6:14 AM HST 6:07 PM HST
Nautical Twilight 5:47 AM HST 6:34 PM HST
Astronomical Twilight 5:20 AM HST 7:00 PM HST
Moon 10:31 AM HST (11/17) 10:02 PM HST (11/17)
Length of Visible Light 11h 53m
Length of Day
11h 06m
Waxing Crescent, 22% of the Moon is Illuminated
Nov 17
Waxing Crescent
Nov 20
First Quarter
Nov 28
Full
Dec 6
Last Quarter
Dec 12
New

Hourly Weather History & Observations

Time (HST) Temp. Dew Point Humidity Pressure Visibility Wind Dir Wind Speed Gust Speed Precip Events Conditions
12:54 AM 72.0 °F 62.1 °F 71% 30.09 in 10.0 mi NE 13.8 mph - N/A   Clear
1:54 AM 72.0 °F 63.0 °F 73% 30.08 in 10.0 mi NE 13.8 mph - N/A   Clear
2:54 AM 71.1 °F 60.1 °F 68% 30.06 in 10.0 mi NNE 10.4 mph - N/A   Mostly Cloudy
3:54 AM 71.1 °F 62.1 °F 73% 30.05 in 10.0 mi ENE 10.4 mph - N/A   Clear
4:54 AM 71.1 °F 61.0 °F 70% 30.05 in 10.0 mi NE 12.7 mph - N/A   Clear
5:54 AM 72.0 °F 62.1 °F 71% 30.06 in 10.0 mi NE 13.8 mph - N/A   Clear
6:54 AM 73.0 °F 61.0 °F 66% 30.08 in 10.0 mi NE 18.4 mph - N/A   Clear
7:54 AM 73.9 °F 61.0 °F 64% 30.09 in 10.0 mi NE 15.0 mph 20.7 mph N/A   Partly Cloudy
8:54 AM 75.9 °F 62.1 °F 62% 30.10 in 10.0 mi NE 13.8 mph - N/A   Scattered Clouds
9:54 AM 75.9 °F 63.0 °F 64% 30.10 in 10.0 mi ENE 15.0 mph 23.0 mph N/A   Mostly Cloudy
10:54 AM 77.0 °F 63.0 °F 62% 30.08 in 10.0 mi ENE 17.3 mph 27.6 mph N/A   Mostly Cloudy
11:54 AM 79.0 °F 63.0 °F 58% 30.06 in 10.0 mi ENE 18.4 mph 29.9 mph N/A   Mostly Cloudy
12:54 PM 79.0 °F 64.0 °F 60% 30.05 in 10.0 mi ENE 19.6 mph 29.9 mph N/A   Mostly Cloudy
1:54 PM 79.0 °F 63.0 °F 58% 30.02 in 10.0 mi ENE 18.4 mph 26.5 mph N/A   Mostly Cloudy
2:54 PM 78.1 °F 63.0 °F 60% 30.02 in 10.0 mi ENE 18.4 mph 28.8 mph N/A   Scattered Clouds
3:54 PM 77.0 °F 64.0 °F 64% 30.03 in 10.0 mi ENE 21.9 mph 28.8 mph N/A   Scattered Clouds
4:52 PM 73.4 °F 66.2 °F 78% 30.02 in 10.0 mi ENE 15.0 mph 29.9 mph 0.00 in Rain Light Rain
4:54 PM 73.9 °F 66.0 °F 76% 30.04 in 10.0 mi NE 17.3 mph 29.9 mph 0.00 in Rain Light Rain
5:54 PM 73.9 °F 66.0 °F 76% 30.06 in 10.0 mi NE 17.3 mph 25.3 mph 0.00 in   Mostly Cloudy
6:54 PM 73.0 °F 64.9 °F 76% 30.08 in 10.0 mi NE 15.0 mph - 0.00 in   Clear
7:54 PM 73.0 °F 64.0 °F 73% 30.10 in 10.0 mi NE 17.3 mph 24.2 mph 0.00 in   Partly Cloudy
8:54 PM 73.0 °F 64.9 °F 76% 30.09 in 10.0 mi ENE 21.9 mph 33.4 mph N/A   Clear
9:54 PM 73.0 °F 64.0 °F 73% 30.11 in 10.0 mi NE 9.2 mph - N/A   Clear
10:54 PM 73.9 °F 61.0 °F 64% 30.12 in 10.0 mi ENE 9.2 mph 18.4 mph N/A   Clear
11:54 PM 73.0 °F 64.0 °F 73% 30.10 in 10.0 mi NE 15.0 mph 24.2 mph N/A   Clear